DW2686 Robertsdale AL US current weather conditions

sailwx.info

Wind from 237 at 0 knots gusting 4

Air temperature 19.4° C
Dewpoint 6.5° C

Last reported at 2019-Nov-19 17:01 UTC.
Time now 2019-Nov-19 18:00 UTC

Location: N 30°32' W 087°44'.
View on Google Maps.

See reports from other nearby stations

  
Tides and Currents Weather Stations Pressure Air Temp Water Temp Dewpoint Dewpoint Depression Visibility Wind Speed Wind Dir Waves Ship Positions
date/time (UTC)wind fromknots sea level pressurealtimeterstation pressurevisibilityair tempwater tempwave heightnotes
2019-Nov-19 17:01 237 0 gusting 4 19.4
2019-Nov-19 16:47 219 1 gusting 6 18.3
2019-Nov-19 16:32 289 18.3
2019-Nov-19 16:16 223 17.2
2019-Nov-19 16:01 196 17.2
2019-Nov-19 15:45 182 16.1
2019-Nov-19 15:31 221 15.6
2019-Nov-19 15:16 186 14.4
2019-Nov-19 15:00 178 13.3
2019-Nov-19 14:45 215 11.7
2019-Nov-19 14:30 236 10.0
2019-Nov-19 14:15 236 8.3
2019-Nov-19 14:02 236 6.7
2019-Nov-19 13:46 236 5.0
2019-Nov-19 13:16 236 3.3
2019-Nov-19 13:02 236 2.8
2019-Nov-19 12:47 236 2.8
2019-Nov-19 12:30 236 2.8
2019-Nov-19 12:17 236 2.8
2019-Nov-19 12:01 236 2.8
2019-Nov-19 11:46 236 2.8
2019-Nov-19 11:31 236 3.3
2019-Nov-19 11:16 236 3.3
2019-Nov-19 11:01 236 3.3
2019-Nov-19 10:45 236 3.9
2019-Nov-19 10:30 236 3.9
2019-Nov-19 10:16 236 3.9
2019-Nov-19 10:00 236 3.9
2019-Nov-19 09:45 236 3.9
2019-Nov-19 09:30 236 4.4
2019-Nov-19 09:15 236 4.4
2019-Nov-19 09:01 236 4.4
2019-Nov-19 08:46 236 4.4
2019-Nov-19 08:31 236 4.4
2019-Nov-19 08:15 236 4.4
2019-Nov-19 08:00 236 4.4
2019-Nov-19 07:45 236 4.4
2019-Nov-19 07:30 236 4.4
2019-Nov-19 07:15 236 4.4
2019-Nov-19 07:00 236 4.4
2019-Nov-19 06:45 241 4.4
2019-Nov-19 06:30 241 4.4
2019-Nov-19 06:15 241 4.4
2019-Nov-19 06:00 241 4.4
2019-Nov-19 05:45 241 4.4
2019-Nov-19 05:30 241 5.0
2019-Nov-19 05:15 241 5.0
2019-Nov-19 05:00 241 5.0
2019-Nov-19 04:48 241 5.0
2019-Nov-19 04:32 241 5.0
2019-Nov-19 04:16 241 5.6
2019-Nov-19 04:01 241 5.6
2019-Nov-19 03:46 241 5.6
2019-Nov-19 03:32 241 5.6
2019-Nov-19 03:16 241 6.1
2019-Nov-19 03:01 241 6.1
2019-Nov-19 02:46 241 6.1
2019-Nov-19 02:31 241 6.7
2019-Nov-19 02:17 241 6.7
2019-Nov-19 02:01 241 7.2
2019-Nov-19 01:46 241 7.2
2019-Nov-19 01:34 241 7.8
2019-Nov-19 01:16 241 8.3
2019-Nov-19 01:01 241 8.3
2019-Nov-19 00:46 241 8.9
2019-Nov-19 00:30 241 9.4
2019-Nov-19 00:16 241 10.0
2019-Nov-19 00:02 241 10.0
2019-Nov-18 23:46 241 11.1
2019-Nov-18 23:31 241 12.2
2019-Nov-18 23:16 241 12.8
2019-Nov-18 23:01 241 13.9
2019-Nov-18 22:46 241 14.4
2019-Nov-18 22:31 242 15.6
2019-Nov-18 22:16 242 16.1
2019-Nov-18 22:01 240 17.2
2019-Nov-18 21:46 225 17.2
2019-Nov-18 21:31 238 17.8
2019-Nov-18 21:16 305 17.8
2019-Nov-18 21:01 225 18.3
2019-Nov-18 20:46 233 18.3
2019-Nov-18 20:31 318 17.8
2019-Nov-18 20:16 279 17.8
2019-Nov-18 20:01 309 17.2
2019-Nov-18 19:46 265 17.8
2019-Nov-18 19:30 319 17.8
2019-Nov-18 19:16 342 17.8
2019-Nov-18 19:01 225 17.8
2019-Nov-18 18:46 321 17.2
2019-Nov-18 18:30 360 0 gusting 3 17.2
2019-Nov-18 18:15 344 17.8
2019-Nov-18 18:01 305 17.8
2019-Nov-18 17:45 235 17.8
2019-Nov-18 17:30 315 17.8
2019-Nov-18 17:15 346 17.8
2019-Nov-18 17:00 344 17.2
2019-Nov-18 16:45 284 17.2
2019-Nov-18 16:31 308 16.7
2019-Nov-18 16:16 309 16.1
2019-Nov-18 16:02 331 15.0
2019-Nov-18 15:47 325 15.0
2019-Nov-18 15:31 355 13.9
2019-Nov-18 15:16 331 12.8
2019-Nov-18 15:01 305 11.7
2019-Nov-18 14:46 213 10.6
2019-Nov-18 14:31 190 8.9
2019-Nov-18 14:16 190 8.3
2019-Nov-18 14:00 187 6.1
2019-Nov-18 13:45 187 3.9
2019-Nov-18 13:30 187 3.3
2019-Nov-18 13:15 187 2.2
2019-Nov-18 13:00 187 2.2
2019-Nov-18 12:45 187 2.2
2019-Nov-18 12:30 187 2.2
2019-Nov-18 12:17 187 2.2
2019-Nov-18 12:02 187 2.2
2019-Nov-18 11:47 187 2.2
2019-Nov-18 11:31 187 2.2
2019-Nov-18 11:17 187 2.2
2019-Nov-18 11:01 187 2.8
2019-Nov-18 10:47 187 2.8
2019-Nov-18 10:32 187 2.8
2019-Nov-18 10:16 187 2.8
2019-Nov-18 10:02 187 2.8
2019-Nov-18 09:47 187 3.3
2019-Nov-18 09:31 187 3.3
2019-Nov-18 09:16 187 3.3
2019-Nov-18 09:01 187 3.3
2019-Nov-18 08:46 187 3.9
2019-Nov-18 08:31 187 3.9
2019-Nov-18 08:16 187 3.9
2019-Nov-18 08:01 187 4.4
2019-Nov-18 07:46 187 4.4
2019-Nov-18 07:30 187 3.9
2019-Nov-18 07:17 187 4.4
2019-Nov-18 07:00 187 4.4
2019-Nov-18 06:46 187 4.4
2019-Nov-18 06:31 187 4.4
2019-Nov-18 06:15 187 5.0
2019-Nov-18 06:01 187 5.0
2019-Nov-18 05:45 187 5.0
2019-Nov-18 05:31 187 5.0
2019-Nov-18 05:15 187 5.6
2019-Nov-18 05:01 187 5.6
2019-Nov-18 04:45 187 5.6
2019-Nov-18 04:31 187 6.1
2019-Nov-18 04:16 187 6.1
2019-Nov-18 04:00 187 6.7
2019-Nov-18 03:46 187 6.7
2019-Nov-18 03:30 187 7.2
2019-Nov-18 03:16 187 7.2
2019-Nov-18 03:00 187 7.2
2019-Nov-18 02:45 187 7.8
2019-Nov-18 02:30 187 8.3
2019-Nov-18 02:15 187 8.3
2019-Nov-18 02:00 187 8.9
2019-Nov-18 01:45 187 8.9
2019-Nov-18 01:30 187 9.4
2019-Nov-18 01:15 187 10.0
2019-Nov-18 01:00 187 10.0
2019-Nov-18 00:45 187 10.6
2019-Nov-18 00:30 187 11.1
2019-Nov-18 00:15 187 11.7
2019-Nov-18 00:00 187 11.7
2019-Nov-17 23:45 187 12.2
2019-Nov-17 23:30 187 13.3
2019-Nov-17 23:15 187 13.9
2019-Nov-17 23:00 187 15.6
2019-Nov-17 22:45 187 16.1
2019-Nov-17 22:30 187 16.7
2019-Nov-17 22:15 187 17.2
2019-Nov-17 22:00 187 17.2
2019-Nov-17 21:45 201 17.2
2019-Nov-17 21:30 201 17.2
2019-Nov-17 21:15 209 17.2
2019-Nov-17 21:00 259 17.8
2019-Nov-17 20:45 239 17.8
2019-Nov-17 20:32 190 18.3
2019-Nov-17 20:30 178 18.3
2019-Nov-17 20:17 218 18.3
2019-Nov-17 20:01 251 18.3
2019-Nov-17 19:47 221 17.8
2019-Nov-17 19:33 189 17.8
2019-Nov-17 19:17 201 17.8
2019-Nov-17 19:01 187 18.3
2019-Nov-17 18:48 345 0 gusting 4 18.9
2019-Nov-17 18:31 233 19.4
2019-Nov-17 18:15 266 19.4
2019-Nov-17 18:01 238 19.4